Honolulu, HI

2:32 AM HST on June 26, 2017 (GMT -1000)
Honolulu International

Weather History for PHNL - September, 2013

Change the Weather History Date:

Tuesday, September 17, 2013

  Actual Average Record
Temperature  
Mean Temperature 82 °F 82 °F  
Max Temperature 87 °F 89 °F 92 °F (1967)
Min Temperature 77 °F 74 °F 70 °F (1974)
Degree Days  
Heating Degree Days 0 0  
Month to date heating degree days 0 0  
Since 1 July heating degree days 0 0  
Cooling Degree Days 17 16  
Month to date cooling degree days 274 288  
Year to date cooling degree days 3134 3272  
Growing Degree Days 32 (Base 50)    
Moisture  
Dew Point 67 °F    
Average Humidity 63    
Maximum Humidity 74    
Minimum Humidity 51    
Precipitation  
Precipitation T in 0.02 in 1.35 in (1963)
Month to date precipitation 0.58 0.34  
Year to date precipitation 9.66 9.24  
Snow  
Snow 0.00 in - - ()
Month to date snowfall 0.0  
Since 1 July snowfall 0.0  
Since 1 September snowfall 0.0  
Snow Depth 0.00 in    
Sea Level Pressure  
Sea Level Pressure 30.00 in    
Wind  
Wind Speed 11 mph (ENE)    
Max Wind Speed 24 mph    
Max Gust Speed 30 mph    
Visibility 10 miles    
Events Rain    
T = Trace of Precipitation, MM = Missing Value Source: NWS Daily Summary

Daily Weather History Graph

Daily Weather History Graph

Search for Another Location

Airport or City:

Trip Planner

Search our weather history database for the weather conditions in past years. The results will help you decide how hot, cold, wet, or windy it might be!

Date:

Astronomy

Sep. 17, 2013 Rise Set
Actual Time 6:19 AM HST 6:32 PM HST
Civil Twilight 5:57 AM HST 6:54 PM HST
Nautical Twilight 5:31 AM HST 7:20 PM HST
Astronomical Twilight 5:05 AM HST 7:46 PM HST
Moon 5:21 PM HST (9/17) 4:35 AM HST (9/17)
Length of Visible Light 12h 57m
Length of Day
12h 12m
Waxing Gibbous, 97% of the Moon is Illuminated
Sep 17
Waxing Gibbous
Sep 19
Full
Sep 26
Last Quarter
Oct 4
New
Oct 11
First Quarter

Hourly Weather History & Observations

Time (HST) Temp. Heat Index Dew Point Humidity Pressure Visibility Wind Dir Wind Speed Gust Speed Precip Events Conditions
12:53 AM 79.0 °F - 66.9 °F 66% 30.03 in 10.0 mi East 6.9 mph - N/A   Scattered Clouds
1:53 AM 78.1 °F - 66.9 °F 68% 30.01 in 10.0 mi East 12.7 mph 18.4 mph 0.00 in   Scattered Clouds
2:53 AM 77.0 °F - 66.9 °F 71% 29.99 in 10.0 mi NE 6.9 mph - 0.00 in   Scattered Clouds
3:53 AM 77.0 °F - 66.9 °F 71% 29.98 in 10.0 mi NE 8.1 mph - N/A   Scattered Clouds
4:53 AM 78.1 °F - 66.9 °F 68% 29.97 in 10.0 mi NE 8.1 mph - N/A   Scattered Clouds
5:53 AM 78.1 °F - 66.9 °F 68% 29.98 in 10.0 mi NE 9.2 mph - N/A   Partly Cloudy
6:53 AM 78.1 °F - 66.9 °F 68% 30.00 in 10.0 mi ENE 6.9 mph 17.3 mph N/A   Scattered Clouds
7:53 AM 77.0 °F - 68.0 °F 74% 30.02 in 10.0 mi NE 11.5 mph 17.3 mph 0.00 in   Mostly Cloudy
8:53 AM 79.0 °F - 66.9 °F 66% 30.03 in 10.0 mi ENE 12.7 mph - N/A   Mostly Cloudy
9:53 AM 78.1 °F - 70.0 °F 76% 30.04 in 10.0 mi ENE 15.0 mph - 0.00 in Rain Light Rain
10:53 AM 81.0 °F 84.1 °F 69.1 °F 67% 30.04 in 10.0 mi ENE 10.4 mph - 0.00 in   Mostly Cloudy
11:53 AM 84.0 °F 85.8 °F 64.9 °F 53% 30.02 in 10.0 mi ENE 16.1 mph 24.2 mph N/A   Mostly Cloudy
12:53 PM 84.9 °F 87.1 °F 66.0 °F 53% 30.00 in 10.0 mi ENE 19.6 mph 29.9 mph 0.00 in   Mostly Cloudy
1:53 PM 84.9 °F 87.6 °F 66.9 °F 55% 29.99 in 10.0 mi ENE 16.1 mph 27.6 mph N/A   Mostly Cloudy
2:53 PM 84.9 °F 87.1 °F 66.0 °F 53% 29.97 in 10.0 mi NE 17.3 mph - N/A   Mostly Cloudy
3:53 PM 84.9 °F 87.1 °F 66.0 °F 53% 29.97 in 10.0 mi NE 15.0 mph 24.2 mph N/A   Mostly Cloudy
4:53 PM 84.0 °F 86.3 °F 66.0 °F 55% 29.97 in 10.0 mi ENE 12.7 mph 24.2 mph N/A   Mostly Cloudy
5:53 PM 82.0 °F 84.1 °F 66.0 °F 58% 29.97 in 10.0 mi ENE 19.6 mph 26.5 mph 0.00 in   Mostly Cloudy
6:53 PM 80.1 °F 82.1 °F 66.0 °F 62% 29.97 in 10.0 mi NE 17.3 mph 23.0 mph N/A   Scattered Clouds
7:53 PM 79.0 °F - 66.0 °F 64% 29.99 in 10.0 mi NE 10.4 mph - N/A   Partly Cloudy
8:53 PM 79.0 °F - 66.0 °F 64% 30.01 in 10.0 mi ENE 17.3 mph 24.2 mph N/A   Partly Cloudy
9:53 PM 79.0 °F - 66.9 °F 66% 30.01 in 10.0 mi ENE 13.8 mph - N/A   Scattered Clouds
10:53 PM 78.1 °F - 66.9 °F 68% 30.00 in 10.0 mi NE 12.7 mph - 0.00 in   Mostly Cloudy
11:53 PM 78.1 °F - 68.0 °F 71% 30.00 in 10.0 mi ENE 11.5 mph - N/A   Scattered Clouds